Find DX-1

NORAD ID: 40071 Int'l Des: 2014-037 Owner: DAUR Country: RU operational
LEOCIRCULARRETROGRADE

リアルタイム位置

3D地球を読み込み中...

DX-1について

説明を読み込み中...

次回通過

Passes for default location (London). Set your location on the main map for personalized predictions.

高度履歴

Loading altitude history...

軌道要素

1 40071U 14037C 26104.96232765 .00001145 00000-0 12580-3 0 9990
2 40071 98.3806 62.8593 0008362 113.2675 246.9422 14.89784381636697
Epoch: Apr 14, 2026 • Age: 10 hours

現在のステータス

高度 615.0 km
速度 7.55 km/s
衛星直下点 -31.09°S, 95.42°E
打ち上げ日 Jul 8, 2014
運用期間 11.7 years
タイプ other

技術仕様

分類 Payload
質量 21.00 kg
乾燥質量 21.00 kg
総質量 21.00 kg
長さ 0.20 m
直径 0.20 m
スパン 0.20 m
形状 Box
製造者 DAUR
バスタイプ DX-1
フェーズステータス In Orbit
所有者/国 DAUR/RU

Most Searched